Regional Weather Roundup
Issued by NWS

Home | Current Version | Previous Version | Graphics & Text | Print | Product List | Glossary On
Versions: 1 2 3 4 5 6 7 8 9 10 11 12 13 14 15 16 17 18 19 20 21 22 23 24 25 26 27 28
000
ASUS45 KCYS 170310
RWRWY

WYOMING REGIONAL WEATHER ROUNDUP
NATIONAL WEATHER SERVICE CHEYENNE WY
800 PM MST TUE JAN 16 2018

NOTE:  "FAIR" INDICATES FEW OR NO CLOUDS BELOW 12,000 FEET
WITH NO SIGNIFICANT WEATHER AND/OR OBSTRUCTIONS TO VISIBILITY.

WYZ001-170400-
YELLOWSTONE NATIONAL PARK

CITY           SKY/WX    TMP DP  RH WIND       PRES   REMARKS
LK YELLOWSTONE   N/A      2  -1  88 CALM      30.32S
W YELLOWSTONE  NOT AVBL

$$
WYZ002>013-054>058-071-098>099-170400-
NORTHERN WYOMING

CITY           SKY/WX    TMP DP  RH WIND       PRES   REMARKS
JACKSON        FAIR       3   0  87 N9        30.35R WCI -12
CODY           FAIR      15  10  80 NE3       30.17R
GREYBULL       FAIR       3  -2  79 NW3       30.22S
WORLAND        FAIR       2   0  91 CALM      30.20S
SHERIDAN       FAIR       5  -1  76 CALM      30.12F
BUFFALO        FAIR      33   6  32 NW3       30.12S
GILLETTE         N/A    N/A N/A N/A MISG      30.16F
HULETT         FAIR      32   3  29 SW10      30.16F WCI  24
NEWCASTLE      FAIR      12  -2  52 CALM      30.24F

$$
WYZ014>020-022>026-101>103-170400-
CENTRAL WYOMING

CITY           SKY/WX    TMP DP  RH WIND       PRES   REMARKS
BIG PINEY      FAIR      11   6  81 NE3       30.28F
PINEDALE       FAIR       5   1  85 W7        30.30R WCI  -7
DUBOIS         FAIR      27   5  39 NW10      30.20S WCI  17
LANDER         FAIR      15  12  88 S5        30.21F WCI   8
RIVERTON       FAIR      17  10  74 CALM      30.22F
CASPER         FAIR      30   5  34 SW16      30.19F WCI  19
DOUGLAS        FAIR      12   6  77 CALM      30.20F

$$
WYZ021-027>030-104>119-170400-
SOUTHERN WYOMING

CITY           SKY/WX    TMP DP  RH WIND       PRES   REMARKS
EVANSTON       FAIR      28  15  58 E3        30.31R
FORT BRIDGER   FAIR      24  11  57 W8        30.33R WCI  15
ROCK SPRINGS   FAIR      21   7  54 SW12      30.29S WCI   9
DIXON            N/A     16   8  72 E3        30.34S
RAWLINS        FAIR      19   0  43 SW6       30.26F WCI  11
SARATOGA       FAIR      19   1  45 CALM      30.27S
LARAMIE        FAIR      13  -4  46 SE5       30.21S WCI   5
CHEYENNE       FAIR      17   9  70 SW10      30.21F WCI   5
TORRINGTON     FAIR      11   7  84 E6        30.25F WCI   1

$$




USA.gov is the U.S. government's official web portal to all federal, state and local government web resources and services.